Latest Weather Observations for Warwick

IDQ60901

Issued at 6:55 pm EST Saturday 1 November 2014 (issued every 10 minutes, with the page automatically refreshed every 10 minutes)

About weather observations | Map of Brisbane area stations | Latest observations for Brisbane area | Other Formats
Station Details ID: 041525 Name: WARWICK Lat: -28.21 Lon: 152.10 Height: 475.4 m
Data from the previous 72 hours. | See also: Recent months at Warwick
Date/Time
EST
Tmp

°C
App
Tmp
°C
Dew
Point
°C
Rel
Hum
%
Delta-T

°C
Wind Press
QNH
hPa
Press
MSL
hPa
Rain
since
9 am
mm
Dir
 
Spd
km/h
Gust
km/h
Spd
kts
Gust
kts
01/06:30pm 30.3 27.6 7.5 24 12.7 N 11 20 6 11 1008.5 1006.3 0.0
01/06:00pm 30.9 27.1 7.7 23 13.0 NNW 17 30 9 16 1008.2 1006.1 0.0
01/05:30pm 31.7 26.9 7.4 22 13.6 NNW 22 28 12 15 1008.2 1006.1 0.0
01/05:00pm 32.3 27.9 7.6 21 13.9 WNW 20 35 11 19 1008.2 1006.1 0.0
01/04:30pm 32.6 27.6 7.9 21 14.0 NW 24 43 13 23 1008.2 1006.1 0.0
01/04:00pm 32.8 27.0 7.9 21 14.1 NW 28 44 15 24 1008.4 1006.2 0.0
01/03:30pm 33.4 28.8 6.7 19 14.9 NNW 20 35 11 19 1008.6 1006.4 0.0
01/03:16pm 33.2 27.2 6.9 19 14.7 NW 28 46 15 25 1008.7 1006.6 0.0
01/03:00pm 33.2 28.0 7.2 20 14.6 NW 24 43 13 23 1008.9 1006.8 0.0
01/02:54pm 32.6 26.7 7.3 20 14.2 NW 28 48 15 26 1009.0 1006.9 0.0
01/02:30pm 32.2 26.8 8.0 22 13.7 NNW 26 43 14 23 1009.4 1007.3 0.0
01/02:09pm 31.8 25.3 8.1 23 13.4 N 32 50 17 27 1009.7 1007.6 0.0
01/02:00pm 31.9 28.0 9.6 25 12.9 NNW 20 41 11 22 1009.8 1007.7 0.0
01/01:30pm 31.4 26.8 11.1 28 12.0 N 26 41 14 22 1010.7 1008.6 0.0
01/01:00pm 30.4 26.6 11.0 30 11.4 NNW 22 37 12 20 1011.0 1008.9 0.0
01/12:30pm 30.7 25.4 10.0 27 12.0 NNW 28 46 15 25 1011.6 1009.5 0.0
01/12:28pm 29.7 24.4 9.7 28 11.5 NNW 28 46 15 25 1011.5 1009.4 0.0
01/12:00pm 30.2 25.8 10.4 29 11.5 NNW 24 39 13 21 1012.4 1010.4 0.0
01/11:30am 28.7 25.0 9.3 29 11.0 NW 19 30 10 16 1013.0 1010.9 0.0
01/11:00am 29.6 25.4 8.4 26 11.9 N 20 30 11 16 1013.4 1011.3 0.0
01/10:30am 27.2 24.6 10.7 35 9.5 N 15 24 8 13 1013.9 1011.8 0.0
01/10:00am 25.4 22.8 12.1 43 7.8 N 17 24 9 13 1014.5 1012.5 0.0
01/09:30am 24.2 21.6 14.8 55 5.7 NE 22 30 12 16 1014.3 1012.8 0.0
01/09:00am 22.1 20.5 15.0 64 4.3 NNE 17 24 9 13 1015.8 1014.3 -
01/08:30am 21.3 21.0 15.5 69 3.5 NW 11 19 6 10 1016.8 1015.3 -
01/08:00am 21.2 19.6 15.1 68 3.7 WNW 17 30 9 16 1017.6 1016.1 -
01/07:30am 20.5 19.1 15.5 73 3.0 WNW 17 22 9 12 1018.0 1016.5 -
01/07:00am 20.6 18.7 15.3 71 3.2 WSW 19 30 10 16 1016.6 1015.1 -
01/06:30am 20.8 20.6 14.6 67 3.7 SSW 9 11 5 6 1014.7 1013.2 -
01/06:00am 19.8 21.2 15.3 75 2.7 N 2 9 1 5 1014.1 1012.6 -
01/05:30am 19.2 18.3 15.9 81 2.0 E 15 20 8 11 1013.9 1012.4 -
01/05:00am 19.6 17.8 15.6 78 2.4 N 19 22 10 12 1014.7 1013.2 -
01/04:30am 19.9 20.2 16.0 78 2.4 WNW 9 13 5 7 1015.5 1014.0 -
01/04:00am 20.2 20.4 15.8 76 2.7 NW 9 15 5 8 1014.9 1013.4 -
01/03:30am 20.2 20.0 15.8 76 2.7 W 11 19 6 10 1014.9 1013.4 -
01/03:00am 20.6 19.7 14.9 70 3.4 NNE 13 15 7 8 1014.1 1012.6 -
01/02:30am 20.7 19.6 15.2 71 3.3 N 15 20 8 11 1014.0 1012.5 -
01/01:00am 21.2 20.8 15.1 68 3.7 NNE 11 15 6 8 1014.7 1013.2 0.0
01/12:30am 21.4 21.0 15.1 67 3.8 N 11 17 6 9 1015.1 1013.5 0.0
01/12:00am 20.8 20.9 15.5 71 3.2 NNE 9 15 5 8 1014.6 1013.1 0.0
 
Date/Time
EST
Tmp

°C
App
Tmp
°C
Dew
Point
°C
Rel
Hum
%
Delta-T

°C
Wind Press
QNH
hPa
Press
MSL
hPa
Rain
since
9 am
mm
Dir
 
Spd
km/h
Gust
km/h
Spd
kts
Gust
kts
31/11:30pm 20.5 21.4 16.1 76 2.7 N 6 11 3 6 1014.7 1013.2 0.0
31/11:00pm 19.7 21.6 15.7 78 2.4 CALM 0 0 0 0 1014.8 1013.3 0.0
31/10:30pm 21.0 21.4 16.3 74 2.9 NE 9 15 5 8 1015.2 1013.7 0.0
31/10:00pm 21.0 23.1 16.3 74 2.9 CALM 0 0 0 0 1015.5 1014.0 0.0
31/09:30pm 21.1 22.6 16.6 75 2.8 NE 4 9 2 5 1015.3 1013.8 0.0
31/09:00pm 21.8 22.2 17.2 75 2.9 ENE 11 15 6 8 1015.2 1013.7 0.0
31/08:30pm 22.4 22.7 17.1 72 3.3 E 11 19 6 10 1014.9 1013.4 0.0
31/08:00pm 23.1 22.6 17.0 68 3.8 ENE 15 22 8 12 1014.6 1013.1 0.0
31/07:30pm 23.9 23.1 17.2 66 4.2 ENE 17 24 9 13 1014.2 1012.7 0.0
31/07:00pm 24.7 22.4 15.8 57 5.5 NE 22 30 12 16 1013.8 1012.3 0.0
31/06:30pm 25.6 23.3 15.8 54 6.1 NE 22 28 12 15 1013.2 1011.6 0.0
31/06:00pm 27.2 24.1 16.6 52 6.7 NE 28 37 15 20 1012.8 1011.2 0.0
31/05:30pm 28.4 24.4 15.2 44 8.2 NNE 30 39 16 21 1012.1 1010.6 0.0
31/05:00pm 29.4 24.9 12.6 35 10.1 NNE 28 37 15 20 1011.7 1010.2 0.0
31/04:30pm 30.9 25.7 11.5 30 11.5 NNE 30 41 16 22 1011.8 1010.3 0.0
31/04:00pm 31.4 26.8 11.1 28 12.0 NNE 26 37 14 20 1011.6 1010.1 0.0
31/03:30pm 31.6 27.6 14.0 34 10.9 NE 28 35 15 19 1011.5 1010.0 0.0
31/03:00pm 32.2 29.4 14.2 33 11.2 NE 22 37 12 20 1011.8 1010.3 0.0
31/02:30pm 32.6 29.7 15.2 35 11.0 NE 24 32 13 17 1012.0 1010.5 0.0
31/02:00pm 32.6 31.4 9.7 24 13.3 N 6 17 3 9 1012.5 1011.0 0.0
31/01:30pm 32.2 27.8 6.4 20 14.2 N 19 30 10 16 1013.2 1011.6 0.0
31/01:00pm 31.7 30.5 12.7 31 11.5 N 11 28 6 15 1013.7 1012.2 0.0
31/12:30pm 31.9 29.4 8.2 23 13.4 NNW 11 22 6 12 1014.3 1012.8 0.0
31/12:00pm 31.0 29.3 12.6 32 11.1 NW 13 26 7 14 1014.9 1013.4 0.0
31/11:30am 30.2 28.7 13.2 35 10.3 NW 13 22 7 12 1015.4 1013.9 0.0
31/11:00am 29.0 28.5 14.8 42 8.8 WNW 11 20 6 11 1016.0 1014.5 0.0
31/10:30am 29.0 28.2 15.0 42 8.7 NNW 13 20 7 11 1016.4 1014.9 0.0
31/10:00am 28.4 28.2 15.8 46 7.9 N 11 17 6 9 1017.0 1015.6 0.0
31/09:30am 26.3 27.1 16.4 54 6.2 SSE 7 11 4 6 1017.3 1015.8 0.0
31/09:00am 24.6 25.4 16.4 60 5.1 N 7 13 4 7 1017.6 1016.1 0.0
31/08:30am 24.3 25.8 16.6 62 4.8 W 4 13 2 7 1017.8 1016.3 0.0
31/08:00am 21.9 21.4 16.0 69 3.6 N 13 20 7 11 1018.1 1016.6 0.0
31/07:30am 21.2 21.5 16.1 72 3.1 NW 9 15 5 8 1018.1 1016.6 0.0
31/07:00am 20.3 20.9 15.3 73 3.0 WNW 6 11 3 6 1018.1 1016.6 0.0
31/06:30am 18.6 18.9 14.9 79 2.2 SW 7 9 4 5 1017.7 1016.2 0.0
31/06:00am 15.5 16.6 13.6 88 1.1 CALM 0 0 0 0 1017.4 1015.9 0.0
31/05:30am 13.3 13.7 11.3 88 1.1 CALM 0 0 0 0 1017.0 1015.6 0.0
31/05:00am 15.1 16.2 13.5 90 0.9 CALM 0 0 0 0 1016.6 1015.1 0.0
31/04:30am 15.1 15.4 13.3 89 1.0 N 4 7 2 4 1016.2 1014.7 0.0
31/04:00am 15.2 16.2 13.1 87 1.2 CALM 0 0 0 0 1016.0 1014.5 0.0
31/03:30am 15.7 16.7 13.2 85 1.4 CALM 0 0 0 0 1015.7 1014.2 0.0
31/03:00am 15.7 16.8 13.4 86 1.3 CALM 0 0 0 0 1015.6 1014.1 0.0
31/02:30am 14.7 13.9 11.6 82 1.7 NNE 7 9 4 5 1015.6 1014.1 0.0
31/02:00am 15.2 16.0 12.7 85 1.4 CALM 0 2 0 1 1015.8 1014.3 0.0
31/01:30am 16.4 17.2 13.8 84 1.5 NW 2 7 1 4 1016.2 1014.7 0.0
31/01:00am 16.2 17.2 13.2 82 1.7 CALM 0 6 0 3 1016.1 1014.6 0.0
31/12:30am 16.3 17.3 14.2 87 1.2 NW 2 6 1 3 1016.3 1014.8 0.0
31/12:00am 17.3 18.5 13.7 79 2.1 CALM 0 0 0 0 1016.5 1015.0 0.0
 
Date/Time
EST
Tmp

°C
App
Tmp
°C
Dew
Point
°C
Rel
Hum
%
Delta-T

°C
Wind Press
QNH
hPa
Press
MSL
hPa
Rain
since
9 am
mm
Dir
 
Spd
km/h
Gust
km/h
Spd
kts
Gust
kts
30/11:30pm 17.6 19.3 15.3 86 1.4 CALM 0 0 0 0 1016.8 1015.3 0.0
30/11:00pm 17.8 19.1 14.2 79 2.1 CALM 0 4 0 2 1016.9 1015.4 0.0
30/10:30pm 19.0 20.5 14.6 75 2.6 CALM 0 6 0 3 1017.0 1015.6 0.0
30/10:00pm 20.2 21.0 15.9 76 2.6 ENE 6 9 3 5 1016.5 1015.0 0.0
30/09:30pm 20.9 21.1 15.8 72 3.1 ENE 9 15 5 8 1015.9 1014.4 0.0
30/09:00pm 21.4 21.3 14.9 66 3.9 NE 9 13 5 7 1015.8 1014.3 0.0
30/08:30pm 22.6 23.1 15.0 62 4.6 SSE 6 11 3 6 1015.5 1014.0 0.0
30/08:00pm 23.0 21.1 15.7 63 4.5 NE 20 30 11 16 1014.9 1013.4 0.0
30/07:30pm 23.7 20.5 15.2 59 5.2 NE 26 37 14 20 1014.4 1012.9 0.0
30/07:00pm 24.4 21.5 15.1 56 5.7 NE 24 30 13 16 1014.1 1012.6 0.0
30/06:30pm 25.7 22.4 14.9 51 6.6 NE 26 32 14 17 1013.6 1012.1 0.0
30/06:00pm 27.6 23.9 14.0 43 8.3 NE 26 33 14 18 1013.0 1011.4 0.0
30/05:30pm 30.4 28.7 7.6 24 12.7 NNW 6 15 3 8 1012.6 1011.1 0.0
30/05:00pm 31.7 28.5 7.0 21 13.7 WNW 13 22 7 12 1012.4 1010.9 0.0
30/04:30pm 32.1 29.9 8.0 22 13.6 NW 9 17 5 9 1012.3 1010.8 0.0
30/04:00pm 32.4 29.5 6.5 20 14.3 W 11 19 6 10 1012.4 1010.9 0.0
30/03:30pm 32.7 30.1 7.7 21 14.1 SSW 11 19 6 10 1012.5 1011.0 0.0
30/03:00pm 31.7 29.5 7.9 22 13.4 WSW 9 15 5 8 1012.8 1011.2 0.0
30/02:30pm 31.7 29.9 9.5 25 12.8 WSW 9 20 5 11 1013.1 1011.5 0.0
30/02:00pm 31.4 28.5 8.2 23 13.1 NW 13 20 7 11 1013.5 1012.0 0.0
30/01:30pm 31.6 28.5 7.4 22 13.5 WNW 13 22 7 12 1013.9 1012.4 0.0
30/01:00pm 30.7 28.5 9.4 26 12.2 NW 11 24 6 13 1014.3 1012.8 0.0
30/12:30pm 30.3 26.5 7.4 23 12.7 NNW 17 26 9 14 1014.8 1013.3 0.0
30/12:00pm 29.5 26.8 8.8 27 11.7 W 13 22 7 12 1015.6 1014.1 0.0
30/11:30am 29.1 27.5 10.2 30 10.9 W 9 19 5 10 1016.1 1014.6 0.0
30/11:00am 28.3 24.8 8.9 29 10.9 NNW 17 24 9 13 1016.8 1015.3 0.0
30/10:30am 28.1 26.0 9.6 31 10.5 W 11 17 6 9 1017.4 1015.9 0.0
30/10:00am 26.5 24.0 8.1 31 10.1 NNW 11 19 6 10 1017.8 1016.3 0.0
30/09:30am 26.0 25.1 9.1 34 9.4 NE 4 17 2 9 1018.0 1016.5 0.0
30/09:00am 23.6 22.2 9.0 39 8.0 NW 6 11 3 6 1018.3 1016.8 0.0
30/08:30am 22.1 20.4 9.8 45 6.8 ENE 9 15 5 8 1018.6 1017.1 0.0
30/08:00am 20.6 19.8 9.8 50 5.9 S 4 11 2 6 1018.9 1017.5 0.0
30/07:30am 19.8 20.1 12.1 61 4.4 SSE 2 6 1 3 1018.8 1017.4 0.0
30/07:00am 17.8 17.5 13.3 75 2.6 SE 7 11 4 6 1018.9 1017.5 0.0
30/06:30am 16.2 17.3 13.4 83 1.6 CALM 0 6 0 3 1018.7 1017.2 0.0
30/06:00am 15.1 14.9 13.0 87 1.2 NE 6 9 3 5 1018.4 1016.9 0.0
30/05:30am 13.1 13.2 11.4 89 0.9 NNE 2 9 1 5 1017.9 1016.4 0.0
30/05:00am 12.0 12.3 10.9 93 0.6 CALM 0 0 0 0 1017.5 1016.0 0.0
30/04:30am 13.7 13.0 11.5 86 1.2 NE 6 9 3 5 1017.3 1015.8 0.0
30/04:00am 13.9 13.4 11.9 88 1.1 NE 6 9 3 5 1017.1 1015.7 0.0
30/03:30am 14.1 14.1 12.3 89 1.0 ENE 4 7 2 4 1017.0 1015.6 0.0
30/03:00am 14.1 13.6 11.9 86 1.2 NE 6 9 3 5 1017.1 1015.7 0.0
30/02:30am 14.3 13.9 12.3 88 1.1 NE 6 7 3 4 1017.4 1015.9 0.0
30/02:00am 14.9 14.6 12.8 87 1.2 ENE 6 9 3 5 1017.5 1016.0 0.0
30/01:30am 14.7 14.7 12.4 86 1.3 NE 4 9 2 5 1017.6 1016.1 0.0
30/01:00am 15.3 15.1 13.0 86 1.3 ENE 6 11 3 6 1017.6 1016.1 0.0
30/12:30am 15.4 15.1 12.7 84 1.5 NE 6 9 3 5 1017.7 1016.2 0.0
30/12:00am 15.5 15.9 12.5 82 1.7 NNE 2 6 1 3 1018.0 1016.5 0.0
 
Date/Time
EST
Tmp

°C
App
Tmp
°C
Dew
Point
°C
Rel
Hum
%
Delta-T

°C
Wind Press
QNH
hPa
Press
MSL
hPa
Rain
since
9 am
mm
Dir
 
Spd
km/h
Gust
km/h
Spd
kts
Gust
kts
29/11:30pm 16.3 16.9 13.1 81 1.8 SSE 2 7 1 4 1018.2 1016.7 0.0
29/11:00pm 17.0 16.3 13.3 79 2.1 SE 9 15 5 8 1018.3 1016.8 0.0
29/10:30pm 17.3 16.9 13.1 76 2.4 SE 7 13 4 7 1018.3 1016.8 0.0
29/10:00pm 18.0 17.1 12.5 70 3.1 SE 9 20 5 11 1018.1 1016.6 0.0
29/09:30pm 18.7 17.0 12.6 67 3.5 SE 13 22 7 12 1017.9 1016.4 0.0
29/09:00pm 19.5 17.5 12.7 65 3.9 SE 15 22 8 12 1017.8 1016.3 0.0
29/08:30pm 20.3 18.2 13.5 65 4.0 SE 17 24 9 13 1017.5 1016.0 0.0
29/08:00pm 21.3 20.1 12.7 58 5.0 ESE 11 17 6 9 1017.0 1015.6 0.0
29/07:30pm 22.9 21.7 14.0 57 5.3 E 13 19 7 10 1016.3 1014.8 0.0
29/07:00pm 24.1 22.5 14.9 56 5.6 ENE 17 24 9 13 1015.7 1014.2 0.0

Latest Capital City Observations: Canberra | Sydney | Melbourne | Brisbane | Adelaide | Perth | Hobart | Darwin

Other Formats:

Comma delimited format used in spreadsheet applications
http://www.bom.gov.au/fwo/IDQ60901/IDQ60901.94555.axf

JavaScript Object Notation format (JSON) in row-major order
http://www.bom.gov.au/fwo/IDQ60901/IDQ60901.94555.json